Вернуться в каталог

FENGYUN 1C DEB

LostSSO
NORAD 35092·DEBRIS·🇨🇳 China

Запущен May 10, 1999 с Taiyuan Satellite Launch Center

Loading…

Ближайшие Пролёты (ближайшие 24 часа)

TLE

УстаревшееSource: Space-Track

Эпоха: Feb 9, 2012, 10:32 UTC

1 35092U 99025DJU 12040.43893876  .00000518  00000-0  21288-3 0  9997
2 35092  98.8588 103.6473 0094506 317.6868 108.3419 14.29015877191331

Отслеживайте FENGYUN 1C DEB в реальном времени с AllMySat

Download on the App Store